Location: Unspecified
(0.0000°N, 0.0000°E)
Time: 12:06:22
(UTC+00:00)

STARLINK-36491 - Pass Details

Date: 20 February 2026
Orbit: 482 x 484 km, 43.0° (Epoch: 8 March)

Event Time Altitude Azimuth Distance (km) Brightness Sun altitude
Exits shadow 05:38:50 - 329° (NNW) 2,420 ? -8.6°
Reaches altitude 10° 05:40:49 10° 337° (NNW) 1,667 ? -8.1°
Maximum altitude 05:44:20 36° 45° (NE) 782 ? -7.2°
Drops below altitude 10° 05:47:52 10° 113° (ESE) 1,669 ? -6.4°
Sets 05:50:10 0° 122° (ESE) 2,549 ? -5.8°
